Tracking 28052 objects as of 25-Sep-2023
HD Live streaming from Space Station
objects crossing your sky now

STARLINK-30046

Track STARLINK-30046 now!
10-day predictions
STARLINK-30046 is classified as:


NORAD ID: 55710
Int'l Code: 2023-026R
Perigee: 360.7 km
Apogee: 363.6 km
Inclination: 43.0 °
Period: 91.6 minutes
Semi major axis: 6733 km
RCS: Unknown
Launch date: February 27, 2023
Source: United States (US)
Launch site: AIR FORCE EASTERN TEST RANGE (AFETR)
Your satellite tracking list
Your tracking list is empty




NASA's NSSDC Master Catalog

Two Line Element Set (TLE):
1 55710U 23026R   23267.58799120  .00012832  00000-0  10115-3 0  9999
2 55710  42.9998 107.0094 0002147 274.9162  85.1461 15.71354583 33820
Source of the keplerian elements: AFSPC